Weather in Bogdanovka

Russia / Zabaykalsky Krai     50°00′15″N   118°45′24″E
temp.,
°C
wind,
m/s
gust,
m/s
humid.,
%
clouds,
%
prec.,
mm/h
press.,
hPa
HPBL,
m
22 april, thu
thu2200:00+18s5924100 0.0 1000118
03:00+14sw2431100 0.1 100176
06:00+11n51143100 0.1 1006360
09:00+11n71044100 0.1 1010683
12:00+15nne893597 0.0 10121103
15:00+18nne772997 0.0 10121629
18:00+17nne882957 0.0 10141613
21:00+12nne813330 0.0 1017544
23 april, fri
fri2300:00+8ne914490 0.0 1022699
03:00+4nne915605 0.0 1025604
06:00+1nne91551100 0.0 1029562
09:00+2nne9123565 0.0 1032671
12:00+7ne8923100 0.0 10321110
15:00+9nne782085 0.0 10311452
18:00+9nne8818100 0.0 10311683
21:00+6ne5920100 0.0 1033449
24 april, sat
sat2400:00+4nne3422100 0.0 103583
03:00+2nne2225100 0.0 103617
06:00+1n2226100 0.0 103612
09:00+5nw1219100 0.0 1035395
12:00+9nw3413100 0.0 10341443
15:00+12nw341196 0.0 10301848
18:00+13nw34106 0.0 10271982
21:00+9wsw221549 0.0 102811
25 april, sun
sun2500:00+6sw111997 0.0 102911
03:00+4sw112296 0.0 102710
06:00+3sw112386 0.0 102610
09:00+8s2317100 0.0 1024298
12:00+13s3413100 0.0 10211286
15:00+15sse5613100 0.0 10161539
18:00+15se4619100 0.0 10131167
21:00+11e472499 0.0 1010108
26 april, mon
mon2600:00+9ne334097 0.1 100853
03:00+9ne3351100 0.1 100353
06:00+9wsw2356100 0.0 100176
09:00+9wsw3670100 0.5 1002429
12:00+15w46345 0.0 10001470
15:00+17sw6838100 0.0 9992273
18:00+16sw4644100 0.1 9981284
21:00+12ssw51221100 0.2 999326